Mattoon, IL

3:48 PM CST on November 16, 2019 (GMT -0600)
Coles County Memorial

Weather History for KMTO - September, 2019

Change the Weather History Date:

Monday, September 30, 2019

  Actual Average Record
Temperature  
Mean Temperature 80 °F 61 °F  
Max Temperature 90 °F 72 °F 90 °F (1952)
Min Temperature 70 °F 49 °F 33 °F (1949)
Degree Days  
Heating Degree Days 0 6  
Month to date heating degree days 0 66  
Since 1 July heating degree days 0 71  
Cooling Degree Days 15 2  
Month to date cooling degree days 237 118  
Year to date cooling degree days 1222 1038  
Growing Degree Days 30 (Base 50)    
Moisture  
Dew Point 65 °F    
Average Humidity 63    
Maximum Humidity 84    
Minimum Humidity 41    
Precipitation  
Precipitation 0.00 in 0.14 in 1.35 in (1977)
Month to date precipitation 1.01 3.07  
Year to date precipitation 26.14 28.97  
Sea Level Pressure  
Sea Level Pressure 30.04 in    
Wind  
Wind Speed 8 mph (SSW)    
Max Wind Speed 17 mph    
Max Gust Speed 26 mph    
Visibility 10 miles    
Events      
T = Trace of Precipitation, MM = Missing Value Source: NWS Daily Summary

Daily Weather History Graph

Daily Weather History Graph

Search for Another Location

Airport or City:

Astronomy

Sep. 30, 2019 Rise Set
Actual Time 6:48 AM CDT 6:37 PM CDT
Civil Twilight 6:21 AM CDT 7:04 PM CDT
Nautical Twilight 5:50 AM CDT 7:35 PM CDT
Astronomical Twilight 5:18 AM CDT 8:06 PM CDT
Moon 8:51 AM CDT (9/30) 8:13 PM CDT (9/30)
Length of Visible Light 12h 43m
Length of Day
11h 49m
Waxing Crescent, 6% of the Moon is Illuminated
Sep 30
Waxing Crescent
Oct 5
First Quarter
Oct 13
Full
Oct 21
Last Quarter
Oct 27
New

Hourly Weather History & Observations

Time (CDT) Temp. Heat Index Dew Point Humidity Pressure Visibility Wind Dir Wind Speed Gust Speed Precip Events Conditions
12:53 AM 75.0 °F - 66.0 °F 73% 30.07 in 10.0 mi South 4.6 mph - N/A   Clear
1:53 AM 73.9 °F - 66.0 °F 76% 30.06 in 10.0 mi South 6.9 mph - N/A   Clear
2:53 AM 73.9 °F - 66.0 °F 76% 30.06 in 10.0 mi South 4.6 mph - N/A   Clear
3:53 AM 72.0 °F - 66.0 °F 81% 30.06 in 10.0 mi South 5.8 mph - N/A   Clear
4:53 AM 72.0 °F - 66.0 °F 81% 30.06 in 10.0 mi South 4.6 mph - N/A   Clear
5:53 AM 71.1 °F - 66.0 °F 84% 30.08 in 10.0 mi South 4.6 mph - N/A   Clear
6:53 AM 71.1 °F - 66.0 °F 84% 30.09 in 10.0 mi South 5.8 mph - N/A   Scattered Clouds
7:53 AM 73.0 °F - 66.0 °F 79% 30.10 in 10.0 mi South 6.9 mph - N/A   Clear
8:53 AM 77.0 °F - 66.9 °F 71% 30.10 in 10.0 mi South 6.9 mph - N/A   Clear
9:53 AM 81.0 °F 83.8 °F 68.0 °F 65% 30.10 in 10.0 mi South 5.8 mph - N/A   Clear
10:53 AM 86.0 °F 88.8 °F 66.9 °F 53% 30.09 in 10.0 mi SSW 11.5 mph - N/A   Clear
11:53 AM 87.1 °F 88.9 °F 64.9 °F 48% 30.09 in 10.0 mi SSW 9.2 mph 23.0 mph N/A   Clear
12:53 PM 89.1 °F 90.0 °F 63.0 °F 42% 30.06 in 10.0 mi SW 10.4 mph 20.7 mph N/A   Mostly Cloudy
1:53 PM 89.1 °F 90.0 °F 63.0 °F 42% 30.03 in 10.0 mi SSW 15.0 mph 21.9 mph N/A   Partly Cloudy
2:53 PM 90.0 °F 90.3 °F 62.1 °F 39% 30.01 in 10.0 mi SW 15.0 mph 26.5 mph N/A   Partly Cloudy
3:53 PM 89.1 °F 89.3 °F 62.1 °F 40% 30.00 in 10.0 mi SSW 13.8 mph 23.0 mph N/A   Clear
4:53 PM 89.1 °F 90.0 °F 63.0 °F 42% 29.99 in 10.0 mi SW 9.2 mph 20.7 mph N/A   Clear
5:53 PM 86.0 °F 87.3 °F 64.0 °F 48% 29.98 in 10.0 mi SSW 8.1 mph 17.3 mph N/A   Clear
6:53 PM 82.9 °F 84.4 °F 64.0 °F 53% 29.99 in 10.0 mi South 5.8 mph - N/A   Clear
7:53 PM 81.0 °F 82.5 °F 64.0 °F 56% 29.99 in 10.0 mi South 4.6 mph - N/A   Clear
8:53 PM 79.0 °F - 64.0 °F 60% 29.99 in 10.0 mi SSE 5.8 mph - N/A   Clear
9:53 PM 77.0 °F - 64.0 °F 64% 29.99 in 10.0 mi South 4.6 mph - N/A   Clear
10:53 PM 77.0 °F - 64.0 °F 64% 29.99 in 10.0 mi South 5.8 mph - N/A   Clear
11:53 PM 75.0 °F - 64.0 °F 69% 29.99 in 10.0 mi SSW 5.8 mph - N/A   Clear